,,,PA_Meas_PMT16A,,PR_Meas_QMR101_102,,RH_Meas_QMH101,,SR_Meas_QMS101,,TA_Meas_QMH101,,GenWind,,GenWind,
date,time,status,PA,status,PR,status,RH,status,SR,status,TA,status,DirAvg,status,SpdAvg,
2010-07-28, 00:00:04,VALID,1004.8,VALID,0,INVALID,111.015,VALID,0,VALID,25.5921,VALID,57,VALID,0.160547,
2010-07-28, 00:01:04,VALID,1004.8,VALID,0,INVALID,111.015,VALID,0.100563,VALID,25.5707,VALID,58,VALID,0.414063,
2010-07-28, 00:02:04,VALID,1004.83,VALID,0,INVALID,111.015,VALID,0.100563,VALID,25.5707,VALID,61,VALID,0.471484,
2010-07-28, 00:03:04,VALID,1004.79,VALID,0,INVALID,111.031,VALID,0.100563,VALID,25.5902,VALID,90,VALID,0.473828,
2010-07-28, 00:04:04,VALID,1004.79,VALID,0,INVALID,111.046,VALID,0,VALID,25.5902,VALID,90,VALID,0.216406,
2010-07-28, 00:05:04,VALID,1004.76,VALID,0,INVALID,111.031,VALID,0,VALID,25.6097,VALID,90,VALID,0.166797,
2010-07-28, 00:06:04,VALID,1004.79,VALID,0,INVALID,111.038,VALID,0,VALID,25.6506,VALID,89,VALID,0.299219,
2010-07-28, 00:07:04,VALID,1004.76,VALID,0,INVALID,111.015,VALID,0,VALID,25.6486,VALID,32,VALID,0.791016,
2010-07-28, 00:08:04,VALID,1004.76,VALID,0.5,INVALID,111.031,VALID,0,VALID,25.5883,VALID,360,VALID,1.17031,
2010-07-28, 00:09:04,VALID,1004.72,VALID,0,INVALID,111,VALID,0,VALID,25.5707,VALID,353,VALID,1.33477,
2010-07-28, 00:10:04,VALID,1004.69,VALID,0.5,INVALID,110.947,VALID,0,VALID,25.5513,VALID,3,VALID,0.905469,
2010-07-28, 00:11:04,VALID,1004.69,VALID,0,INVALID,110.84,VALID,0.100563,VALID,25.5318,VALID,352,VALID,0.703906,
2010-07-28, 00:12:04,VALID,1004.69,VALID,0,INVALID,110.748,VALID,0,VALID,25.5513,VALID,352,VALID,0.583984,
2010-07-28, 00:13:04,VALID,1004.66,VALID,0,INVALID,110.657,VALID,0.100563,VALID,25.5727,VALID,352,VALID,0.400781,
2010-07-28, 00:14:04,VALID,1004.67,VALID,0,INVALID,110.558,VALID,0.100563,VALID,25.5707,VALID,352,VALID,0.25,
2010-07-28, 00:15:04,VALID,1004.65,VALID,0,INVALID,110.474,VALID,0.100563,VALID,25.5707,VALID,352,VALID,0.341797,
2010-07-28, 00:16:04,VALID,1004.63,VALID,0,INVALID,110.359,VALID,0.100563,VALID,25.5902,VALID,346,VALID,0.553906,
2010-07-28, 00:17:04,VALID,1004.64,VALID,0,INVALID,110.222,VALID,0.100563,VALID,25.6097,VALID,348,VALID,0.563281,
2010-07-28, 00:18:04,VALID,1004.65,VALID,0,INVALID,110.092,VALID,0.100563,VALID,25.6486,VALID,346,VALID,0.287891,
2010-07-28, 00:19:04,VALID,1004.64,VALID,0,INVALID,110.031,VALID,0.100563,VALID,25.6486,VALID,346,VALID,0,
2010-07-28, 00:20:04,VALID,1004.69,VALID,0,INVALID,109.955,VALID,0,VALID,25.6681,VALID,346,VALID,0.1,
2010-07-28, 00:21:04,VALID,1004.68,VALID,0,INVALID,109.947,VALID,0.100563,VALID,25.6876,VALID,18,VALID,0.458594,
2010-07-28, 00:22:04,VALID,1004.69,VALID,0,INVALID,109.993,VALID,0.100563,VALID,25.6681,VALID,30,VALID,0.235156,
2010-07-28, 00:23:04,VALID,1004.68,VALID,0,INVALID,109.986,VALID,0,VALID,25.6486,VALID,30,VALID,0.119141,
2010-07-28, 00:24:04,VALID,1004.68,VALID,0,INVALID,109.963,VALID,0,VALID,25.6506,VALID,30,VALID,0,
2010-07-28, 00:25:04,VALID,1004.69,VALID,0,INVALID,109.932,VALID,0,VALID,25.6311,VALID,30,VALID,0,
2010-07-28, 00:26:04,VALID,1004.7,VALID,0,INVALID,109.879,VALID,0.100563,VALID,25.6077,VALID,30,VALID,0.00820312,
2010-07-28, 00:27:04,VALID,1004.71,VALID,0,INVALID,109.81,VALID,0.100563,VALID,25.6292,VALID,30,VALID,0.512109,
2010-07-28, 00:28:04,VALID,1004.69,VALID,0,INVALID,109.818,VALID,0,VALID,25.6292,VALID,30,VALID,0.568359,
2010-07-28, 00:29:04,VALID,1004.67,VALID,0,INVALID,109.741,VALID,0,VALID,25.5902,VALID,30,VALID,0.182031,
2010-07-28, 00:30:04,VALID,1004.63,VALID,0,INVALID,109.703,VALID,0.100563,VALID,25.5883,VALID,30,VALID,0,
2010-07-28, 00:31:04,VALID,1004.6,VALID,0,INVALID,109.596,VALID,0,VALID,25.6116,VALID,30,VALID,0,
2010-07-28, 00:32:04,VALID,1004.58,VALID,0,INVALID,109.513,VALID,0,VALID,25.6525,VALID,30,VALID,0,
2010-07-28, 00:33:04,VALID,1004.5,VALID,0,INVALID,109.474,VALID,0,VALID,25.6525,VALID,30,VALID,0,
2010-07-28, 00:34:04,VALID,1004.5,VALID,0,INVALID,109.375,VALID,0,VALID,25.6311,VALID,30,VALID,0,
2010-07-28, 00:35:04,VALID,1004.46,VALID,0,INVALID,109.322,VALID,0,VALID,25.672,VALID,57,VALID,0,
2010-07-28, 00:36:04,VALID,1004.45,VALID,0,INVALID,109.291,VALID,0,VALID,25.6506,VALID,96,VALID,0,
2010-07-28, 00:37:04,VALID,1004.42,VALID,0,INVALID,109.253,VALID,0,VALID,25.6292,VALID,96,VALID,0.382813,
2010-07-28, 00:38:04,VALID,1004.44,VALID,0,INVALID,109.185,VALID,0,VALID,25.67,VALID,181,VALID,0.516797,
2010-07-28, 00:39:04,VALID,1004.41,VALID,0,INVALID,109.162,VALID,0,VALID,25.6895,VALID,139,VALID,0.296484,
2010-07-28, 00:40:04,VALID,1004.4,VALID,0,INVALID,109.169,VALID,0,VALID,25.6895,VALID,97,VALID,0.567969,
2010-07-28, 00:41:04,VALID,1004.4,VALID,0,INVALID,109.23,VALID,0,VALID,25.6311,VALID,97,VALID,0.20625,
2010-07-28, 00:42:04,VALID,1004.4,VALID,0,INVALID,109.268,VALID,0,VALID,25.6311,VALID,97,VALID,0.175781,
2010-07-28, 00:43:04,VALID,1004.38,VALID,0,INVALID,109.276,VALID,0,VALID,25.6311,VALID,97,VALID,0.160156,
2010-07-28, 00:44:04,VALID,1004.37,VALID,0,INVALID,109.238,VALID,0,VALID,25.633,VALID,97,VALID,0.129297,
2010-07-28, 00:45:04,VALID,1004.36,VALID,0,INVALID,109.207,VALID,0,VALID,25.6311,VALID,97,VALID,0,
2010-07-28, 00:46:04,VALID,1004.34,VALID,0,INVALID,109.169,VALID,0,VALID,25.633,VALID,97,VALID,0.235547,
2010-07-28, 00:47:04,VALID,1004.34,VALID,0,INVALID,109.154,VALID,0,VALID,25.6525,VALID,97,VALID,0.33125,
2010-07-28, 00:48:04,VALID,1004.31,VALID,0,INVALID,109.154,VALID,0,VALID,25.6116,VALID,60,VALID,0.471875,
2010-07-28, 00:49:04,VALID,1004.23,VALID,0,INVALID,109.162,VALID,0,VALID,25.5921,VALID,60,VALID,0.435937,
2010-07-28, 00:50:04,VALID,1004.19,VALID,0,INVALID,109.162,VALID,0,VALID,25.5921,VALID,59,VALID,0.275391,
2010-07-28, 00:51:04,VALID,1004.15,VALID,0,INVALID,109.146,VALID,0,VALID,25.5532,VALID,59,VALID,0.355078,
2010-07-28, 00:52:04,VALID,1004.13,VALID,0,INVALID,109.146,VALID,0,VALID,25.5532,VALID,59,VALID,0.500391,
2010-07-28, 00:53:04,VALID,1004.11,VALID,0,INVALID,109.116,VALID,0,VALID,25.5746,VALID,59,VALID,0.535156,
2010-07-28, 00:54:04,VALID,1004.08,VALID,0,INVALID,109.07,VALID,0,VALID,25.5746,VALID,59,VALID,0.5,
2010-07-28, 00:55:04,VALID,1004.07,VALID,0,INVALID,109.04,VALID,0,VALID,25.5532,VALID,58,VALID,0.382813,
2010-07-28, 00:56:04,VALID,1004.04,VALID,0,INVALID,109.001,VALID,0,VALID,25.5551,VALID,58,VALID,0.214062,
2010-07-28, 00:57:04,VALID,1004.03,VALID,0,VALID,104,VALID,0,VALID,25.5337,VALID,58,VALID,0.0519531,
2010-07-28, 00:58:04,VALID,1004.04,VALID,0,VALID,104,VALID,0,VALID,25.5337,VALID,58,VALID,0.0757812,
2010-07-28, 00:59:04,VALID,1004.03,VALID,0,VALID,104,VALID,0,VALID,25.5142,VALID,58,VALID,0.0402344,
2010-07-28, 01:00:04,VALID,1004.04,VALID,0,VALID,104,VALID,0,VALID,25.4948,VALID,58,VALID,0.198828,
2010-07-28, 01:01:04,VALID,1004.07,VALID,0,VALID,104,VALID,0,VALID,25.5142,VALID,58,VALID,0.0398437,
2010-07-28, 01:02:04,VALID,1004.06,VALID,0,VALID,104,VALID,0,VALID,25.4948,VALID,10,VALID,0,
2010-07-28, 01:03:04,VALID,1004.06,VALID,0,VALID,104,VALID,0,VALID,25.4948,VALID,10,VALID,0,
2010-07-28, 01:04:04,VALID,1004.05,VALID,0,VALID,104,VALID,0,VALID,25.4753,VALID,11,VALID,0,
2010-07-28, 01:05:04,VALID,1004.06,VALID,0,VALID,104,VALID,0,VALID,25.4558,VALID,11,VALID,0,
2010-07-28, 01:06:04,VALID,1004.02,VALID,0,VALID,104,VALID,0,VALID,25.4363,VALID,11,VALID,0,
2010-07-28, 01:07:04,VALID,1004.04,VALID,0,VALID,104,VALID,0,VALID,25.4577,VALID,11,VALID,0,
2010-07-28, 01:08:04,VALID,1004.04,VALID,0,VALID,104,VALID,0,VALID,25.4772,VALID,11,VALID,0,
2010-07-28, 01:09:04,VALID,1004.03,VALID,0,VALID,104,VALID,0,VALID,25.4363,VALID,11,VALID,0,
2010-07-28, 01:10:04,VALID,1004,VALID,0,VALID,104,VALID,0,VALID,25.4363,VALID,11,VALID,0,
2010-07-28, 01:11:04,VALID,1004,VALID,0,VALID,104,VALID,0,VALID,25.4363,VALID,5,VALID,0.246875,
2010-07-28, 01:12:04,VALID,1003.96,VALID,0,VALID,104,VALID,0,VALID,25.4169,VALID,356,VALID,0.671484,
2010-07-28, 01:13:04,VALID,1003.93,VALID,0,VALID,104,VALID,0,VALID,25.4188,VALID,356,VALID,0.518359,
2010-07-28, 01:14:04,VALID,1003.88,VALID,0,VALID,104,VALID,0,VALID,25.376,VALID,356,VALID,0.590234,
2010-07-28, 01:15:04,VALID,1003.87,VALID,0,VALID,104,VALID,0,VALID,25.3584,VALID,356,VALID,0.385547,
2010-07-28, 01:16:04,VALID,1003.84,VALID,0,VALID,104,VALID,0,VALID,25.337,VALID,356,VALID,0.375,
2010-07-28, 01:17:04,VALID,1003.83,VALID,0,VALID,104,VALID,0.100563,VALID,25.3176,VALID,356,VALID,0.298438,
2010-07-28, 01:18:04,VALID,1003.81,VALID,0,VALID,104,VALID,0,VALID,25.2962,VALID,356,VALID,0.486719,
2010-07-28, 01:19:04,VALID,1003.82,VALID,0,VALID,104,VALID,0.100563,VALID,25.3176,VALID,356,VALID,0.173047,
2010-07-28, 01:20:04,VALID,1003.79,VALID,0,VALID,104,VALID,0,VALID,25.2981,VALID,356,VALID,0.221094,
2010-07-28, 01:21:04,VALID,1003.79,VALID,0,VALID,104,VALID,0,VALID,25.2572,VALID,356,VALID,0.0667969,
2010-07-28, 01:22:04,VALID,1003.77,VALID,0,VALID,104,VALID,0,VALID,25.2786,VALID,356,VALID,0,
2010-07-28, 01:23:04,VALID,1003.73,VALID,0,VALID,104,VALID,0.100563,VALID,25.2786,VALID,356,VALID,0,
2010-07-28, 01:24:04,VALID,1003.7,VALID,0,VALID,104,VALID,0,VALID,25.2592,VALID,356,VALID,0,
2010-07-28, 01:25:04,VALID,1003.68,VALID,0,VALID,104,VALID,0,VALID,25.2592,VALID,354,VALID,0,
2010-07-28, 01:26:04,VALID,1003.66,VALID,0,VALID,104,VALID,0,VALID,25.2397,VALID,344,VALID,0.294531,
2010-07-28, 01:27:04,VALID,1003.69,VALID,0,VALID,104,VALID,0,VALID,25.2397,VALID,344,VALID,0.215625,
2010-07-28, 01:28:04,VALID,1003.73,VALID,0,VALID,104,VALID,0.100563,VALID,25.2397,VALID,344,VALID,0,
2010-07-28, 01:29:04,VALID,1003.8,VALID,0,VALID,104,VALID,0,VALID,25.2397,VALID,344,VALID,0,
2010-07-28, 01:30:04,VALID,1003.81,VALID,0,VALID,104,VALID,0.100563,VALID,25.2183,VALID,344,VALID,0.0214844,
2010-07-28, 01:31:04,VALID,1003.82,VALID,0,VALID,104,VALID,0,VALID,25.2027,VALID,353,VALID,0.192969,
2010-07-28, 01:32:04,VALID,1003.87,VALID,0,VALID,104,VALID,0,VALID,25.2027,VALID,331,VALID,0.180859,
2010-07-28, 01:33:04,VALID,1003.89,VALID,0,INVALID,109.009,VALID,0,VALID,25.1248,VALID,353,VALID,1.20625,
2010-07-28, 01:34:04,VALID,1003.88,VALID,0,INVALID,109.108,VALID,0,VALID,25.0469,VALID,320,VALID,0.74375,
2010-07-28, 01:35:04,VALID,1003.93,VALID,0,INVALID,109.207,VALID,0,VALID,25.0293,VALID,348,VALID,1.18281,
2010-07-28, 01:36:04,VALID,1003.91,VALID,0,INVALID,109.268,VALID,0,VALID,24.9904,VALID,356,VALID,0.807422,
2010-07-28, 01:37:04,VALID,1003.93,VALID,0,INVALID,109.276,VALID,0,VALID,24.9495,VALID,351,VALID,0.114453,
2010-07-28, 01:38:04,VALID,1003.88,VALID,0,INVALID,109.307,VALID,0,VALID,24.9106,VALID,350,VALID,0.420312,
2010-07-28, 01:39:04,VALID,1003.89,VALID,0,INVALID,109.345,VALID,0,VALID,24.9106,VALID,350,VALID,0.455469,
2010-07-28, 01:40:04,VALID,1003.91,VALID,0,INVALID,109.497,VALID,0,VALID,24.8522,VALID,354,VALID,0.784375,
2010-07-28, 01:41:04,VALID,1003.9,VALID,0,INVALID,109.513,VALID,0,VALID,24.8522,VALID,360,VALID,0.601172,
2010-07-28, 01:42:04,VALID,1003.92,VALID,0,INVALID,109.528,VALID,0,VALID,24.8735,VALID,13,VALID,0.858203,
2010-07-28, 01:43:04,VALID,1003.91,VALID,0,INVALID,109.589,VALID,0,VALID,24.8716,VALID,354,VALID,0.825781,
2010-07-28, 01:44:04,VALID,1003.86,VALID,0,INVALID,109.558,VALID,0,VALID,24.9106,VALID,358,VALID,0.61875,
2010-07-28, 01:45:04,VALID,1003.85,VALID,0,INVALID,109.543,VALID,0,VALID,24.9282,VALID,358,VALID,0.263281,
2010-07-28, 01:46:04,VALID,1003.85,VALID,0,INVALID,109.581,VALID,0,VALID,24.9282,VALID,32,VALID,0.844922,
2010-07-28, 01:47:04,VALID,1003.84,VALID,0,INVALID,109.68,VALID,0,VALID,24.9087,VALID,19,VALID,0.867578,
2010-07-28, 01:48:04,VALID,1003.83,VALID,0,INVALID,109.673,VALID,0,VALID,24.9282,VALID,16,VALID,0.479688,
2010-07-28, 01:49:04,VALID,1003.84,VALID,0,INVALID,109.642,VALID,0,VALID,24.93,VALID,16,VALID,0.423047,
2010-07-28, 01:50:04,VALID,1003.84,VALID,0,INVALID,109.665,VALID,0,VALID,24.9087,VALID,353,VALID,0.560938,
2010-07-28, 01:51:04,VALID,1003.9,VALID,0,INVALID,109.574,VALID,0,VALID,24.9476,VALID,15,VALID,1.02031,
2010-07-28, 01:52:04,VALID,1003.92,VALID,0,INVALID,109.421,VALID,0,VALID,24.9866,VALID,29,VALID,1.41641,
2010-07-28, 01:53:04,VALID,1003.87,VALID,0,INVALID,109.52,VALID,0.100563,VALID,25.0274,VALID,22,VALID,1.28672,
2010-07-28, 01:54:04,VALID,1003.91,VALID,0,INVALID,109.78,VALID,0.100563,VALID,24.9476,VALID,30,VALID,1.68516,
2010-07-28, 01:55:04,VALID,1003.94,VALID,0,INVALID,110.024,VALID,0,VALID,24.969,VALID,30,VALID,1.83906,
2010-07-28, 01:56:04,VALID,1003.96,VALID,0,INVALID,110.214,VALID,0,VALID,24.9866,VALID,32,VALID,1.31914,
2010-07-28, 01:57:04,VALID,1004,VALID,0,INVALID,110.55,VALID,0,VALID,24.9671,VALID,13,VALID,1.78281,
2010-07-28, 01:58:04,VALID,1003.98,VALID,0,INVALID,110.939,VALID,0,VALID,24.9282,VALID,16,VALID,2.82109,
2010-07-28, 01:59:04,VALID,1004.03,VALID,0.5,INVALID,111.191,VALID,0,VALID,24.8697,VALID,353,VALID,3.00547,
2010-07-28, 02:00:04,VALID,1004.06,VALID,0,INVALID,111.199,VALID,0,VALID,24.8892,VALID,6,VALID,1.04453,
2010-07-28, 02:01:04,VALID,1004.04,VALID,0.5,INVALID,111.252,VALID,0,VALID,24.8503,VALID,28,VALID,1.14297,
2010-07-28, 02:02:04,VALID,1003.88,VALID,1,INVALID,111.237,VALID,0,VALID,24.6945,VALID,3,VALID,1.46719,
2010-07-28, 02:03:04,VALID,1003.64,VALID,1,INVALID,111.168,VALID,0,VALID,24.5972,VALID,284,VALID,1.52773,
2010-07-28, 02:04:04,VALID,1003.64,VALID,0,INVALID,111.069,VALID,0,VALID,24.5406,VALID,348,VALID,1.09961,
2010-07-28, 02:05:04,VALID,1003.55,VALID,0,INVALID,111.023,VALID,0,VALID,24.4025,VALID,353,VALID,3.07148,
2010-07-28, 02:06:04,VALID,1003.55,VALID,0,INVALID,110.97,VALID,0,VALID,24.2468,VALID,27,VALID,2.20508,
2010-07-28, 02:07:04,VALID,1003.49,VALID,0,INVALID,110.787,VALID,0,VALID,24.2078,VALID,348,VALID,1.68906,
2010-07-28, 02:08:04,VALID,1003.48,VALID,0,INVALID,110.802,VALID,0,VALID,24.13,VALID,351,VALID,1.86211,
2010-07-28, 02:09:04,VALID,1003.47,VALID,0,INVALID,110.802,VALID,0,VALID,24.015,VALID,346,VALID,1.77383,
2010-07-28, 02:10:04,VALID,1003.47,VALID,0,INVALID,110.581,VALID,0,VALID,23.9937,VALID,1,VALID,1.86406,
2010-07-28, 02:11:04,VALID,1003.44,VALID,0,INVALID,110.451,VALID,0,VALID,23.9937,VALID,351,VALID,1.48281,
2010-07-28, 02:12:04,VALID,1003.45,VALID,0,INVALID,110.268,VALID,0,VALID,24.015,VALID,360,VALID,1.93594,
2010-07-28, 02:13:04,VALID,1003.46,VALID,0,INVALID,110.199,VALID,0,VALID,23.9742,VALID,353,VALID,1.48008,
2010-07-28, 02:14:04,VALID,1003.45,VALID,0,INVALID,110.123,VALID,0,VALID,23.9548,VALID,352,VALID,1.475,
2010-07-28, 02:15:04,VALID,1003.43,VALID,0,INVALID,110.1,VALID,0,VALID,23.9159,VALID,353,VALID,1.8082,
2010-07-28, 02:16:04,VALID,1003.41,VALID,0,INVALID,110.001,VALID,0,VALID,23.9159,VALID,355,VALID,1.61523,
2010-07-28, 02:17:04,VALID,1003.4,VALID,0,INVALID,109.963,VALID,0.100563,VALID,23.9159,VALID,357,VALID,1.85547,
2010-07-28, 02:18:04,VALID,1003.39,VALID,0,INVALID,109.902,VALID,0,VALID,23.9159,VALID,2,VALID,1.54297,
2010-07-28, 02:19:04,VALID,1003.42,VALID,0,INVALID,109.833,VALID,0.100563,VALID,23.8751,VALID,356,VALID,1.77852,
2010-07-28, 02:20:04,VALID,1003.39,VALID,0,INVALID,109.764,VALID,0,VALID,23.8964,VALID,11,VALID,1.04805,
2010-07-28, 02:21:04,VALID,1003.38,VALID,0,INVALID,109.749,VALID,0.100563,VALID,23.8769,VALID,349,VALID,0.995703,
2010-07-28, 02:22:04,VALID,1003.41,VALID,0,INVALID,109.749,VALID,0.100563,VALID,23.8575,VALID,7,VALID,1.34805,
2010-07-28, 02:23:04,VALID,1003.39,VALID,0.5,INVALID,109.81,VALID,0,VALID,23.8185,VALID,9,VALID,1.43789,
2010-07-28, 02:24:04,VALID,1003.4,VALID,0,INVALID,109.841,VALID,0.100563,VALID,23.8398,VALID,18,VALID,1.35898,
2010-07-28, 02:25:04,VALID,1003.35,VALID,0,INVALID,109.78,VALID,0,VALID,23.8185,VALID,95,VALID,1.09453,
2010-07-28, 02:26:04,VALID,1003.33,VALID,0,INVALID,109.917,VALID,0,VALID,23.7973,VALID,41,VALID,1.13359,
2010-07-28, 02:27:04,VALID,1003.33,VALID,0,INVALID,109.94,VALID,0,VALID,23.838,VALID,5,VALID,1.51602,
2010-07-28, 02:28:04,VALID,1003.37,VALID,0,INVALID,109.978,VALID,0,VALID,23.8575,VALID,359,VALID,1.3875,
2010-07-28, 02:29:04,VALID,1003.34,VALID,0,INVALID,110.092,VALID,0.100563,VALID,23.8575,VALID,25,VALID,0.942578,
2010-07-28, 02:30:04,VALID,1003.36,VALID,0,INVALID,110.138,VALID,0.100563,VALID,23.8575,VALID,34,VALID,1.11172,
2010-07-28, 02:31:04,VALID,1003.33,VALID,0,INVALID,110.115,VALID,0,VALID,23.8769,VALID,7,VALID,1.14805,
2010-07-28, 02:32:04,VALID,1003.35,VALID,0,INVALID,110.131,VALID,0,VALID,23.8982,VALID,24,VALID,0.777734,
2010-07-28, 02:33:04,VALID,1003.37,VALID,0,INVALID,110.176,VALID,0,VALID,23.8982,VALID,5,VALID,1.07813,
2010-07-28, 02:34:04,VALID,1003.37,VALID,0,INVALID,110.131,VALID,0,VALID,23.9371,VALID,5,VALID,0.669531,
2010-07-28, 02:35:04,VALID,1003.45,VALID,0,INVALID,110.146,VALID,0,VALID,23.9371,VALID,15,VALID,0.782812,
2010-07-28, 02:36:04,VALID,1003.45,VALID,0,INVALID,110.153,VALID,0,VALID,23.9566,VALID,7,VALID,1.16484,
2010-07-28, 02:37:04,VALID,1003.44,VALID,0,INVALID,110.153,VALID,0,VALID,23.9548,VALID,355,VALID,1.01641,
2010-07-28, 02:38:04,VALID,1003.47,VALID,0,INVALID,110.176,VALID,0,VALID,23.9742,VALID,359,VALID,1.00742,
2010-07-28, 02:39:04,VALID,1003.47,VALID,0,INVALID,110.222,VALID,0,VALID,24.015,VALID,22,VALID,0.75625,
2010-07-28, 02:40:04,VALID,1003.49,VALID,0,INVALID,110.214,VALID,0,VALID,24.0326,VALID,3,VALID,0.622656,
2010-07-28, 02:41:04,VALID,1003.47,VALID,0,INVALID,110.291,VALID,0,VALID,24.0521,VALID,4,VALID,1.48398,
2010-07-28, 02:42:04,VALID,1003.53,VALID,0,INVALID,110.413,VALID,0,VALID,24.0716,VALID,14,VALID,1.47891,
2010-07-28, 02:43:04,VALID,1003.5,VALID,0,INVALID,110.535,VALID,0,VALID,24.1123,VALID,15,VALID,1.27031,
2010-07-28, 02:44:04,VALID,1003.51,VALID,0,INVALID,110.672,VALID,0,VALID,24.1707,VALID,16,VALID,1.1375,
2010-07-28, 02:45:04,VALID,1003.51,VALID,0,INVALID,110.832,VALID,0,VALID,24.2291,VALID,26,VALID,0.842969,
2010-07-28, 02:46:04,VALID,1003.5,VALID,0,INVALID,110.985,VALID,0,VALID,24.2857,VALID,24,VALID,1.08984,
2010-07-28, 02:47:04,VALID,1003.53,VALID,0,INVALID,111.115,VALID,0.100563,VALID,24.3052,VALID,13,VALID,1.19219,
2010-07-28, 02:48:04,VALID,1003.52,VALID,0,INVALID,111.168,VALID,0,VALID,24.3246,VALID,16,VALID,0.605859,
2010-07-28, 02:49:04,VALID,1003.52,VALID,0,INVALID,111.206,VALID,0,VALID,24.3246,VALID,51,VALID,0.425391,
2010-07-28, 02:50:04,VALID,1003.52,VALID,0,INVALID,111.199,VALID,0,VALID,24.3246,VALID,37,VALID,2.15469,
2010-07-28, 02:51:04,VALID,1003.5,VALID,0,INVALID,111.199,VALID,0,VALID,24.422,VALID,44,VALID,2.18477,
2010-07-28, 02:52:04,VALID,1003.49,VALID,0,INVALID,111.199,VALID,0,VALID,24.5212,VALID,22,VALID,1.28945,
2010-07-28, 02:53:04,VALID,1003.46,VALID,0,INVALID,111.26,VALID,0,VALID,24.5582,VALID,29,VALID,1.38047,
2010-07-28, 02:54:04,VALID,1003.44,VALID,0,INVALID,111.244,VALID,0,VALID,24.6185,VALID,58,VALID,0.975781,
2010-07-28, 02:55:04,VALID,1003.43,VALID,0,INVALID,111.282,VALID,0,VALID,24.5972,VALID,63,VALID,1.01953,
2010-07-28, 02:56:04,VALID,1003.39,VALID,0,INVALID,111.275,VALID,0,VALID,24.6166,VALID,48,VALID,0.874219,
2010-07-28, 02:57:04,VALID,1003.36,VALID,0,INVALID,111.282,VALID,0,VALID,24.6361,VALID,22,VALID,1.3,
2010-07-28, 02:58:04,VALID,1003.37,VALID,0,INVALID,111.275,VALID,0,VALID,24.6556,VALID,15,VALID,1.41094,
2010-07-28, 02:59:04,VALID,1003.38,VALID,0,INVALID,111.282,VALID,0,VALID,24.6964,VALID,25,VALID,0.947656,
2010-07-28, 03:00:04,VALID,1003.38,VALID,0,INVALID,111.275,VALID,0,VALID,24.6945,VALID,50,VALID,0.540625,
2010-07-28, 03:01:04,VALID,1003.35,VALID,0,INVALID,111.298,VALID,0,VALID,24.675,VALID,75,VALID,1.1043,
2010-07-28, 03:02:04,VALID,1003.37,VALID,0,INVALID,111.252,VALID,0,VALID,24.6964,VALID,107,VALID,1.10117,
2010-07-28, 03:03:04,VALID,1003.36,VALID,0,INVALID,111.26,VALID,0,VALID,24.6964,VALID,68,VALID,0.461328,
2010-07-28, 03:04:04,VALID,1003.35,VALID,0,INVALID,111.282,VALID,0,VALID,24.675,VALID,83,VALID,1.03984,
2010-07-28, 03:05:04,VALID,1003.39,VALID,0,INVALID,111.26,VALID,0,VALID,24.6361,VALID,75,VALID,1.63008,
2010-07-28, 03:06:04,VALID,1003.42,VALID,0,INVALID,111.252,VALID,0,VALID,24.6556,VALID,89,VALID,0.905469,
2010-07-28, 03:07:04,VALID,1003.4,VALID,0,INVALID,111.237,VALID,0.100563,VALID,24.6361,VALID,48,VALID,0.435156,
2010-07-28, 03:08:04,VALID,1003.31,VALID,0,INVALID,111.244,VALID,0,VALID,24.6361,VALID,50,VALID,0.287109,
2010-07-28, 03:09:04,VALID,1003.32,VALID,0,INVALID,111.267,VALID,0,VALID,24.5972,VALID,10,VALID,0.861328,
2010-07-28, 03:10:04,VALID,1003.32,VALID,0,INVALID,111.26,VALID,0,VALID,24.5582,VALID,20,VALID,1.15937,
2010-07-28, 03:11:04,VALID,1003.3,VALID,0,INVALID,111.214,VALID,0,VALID,24.5406,VALID,27,VALID,0.627734,
2010-07-28, 03:12:04,VALID,1003.33,VALID,0,INVALID,111.221,VALID,0,VALID,24.5388,VALID,20,VALID,0.727734,
2010-07-28, 03:13:04,VALID,1003.32,VALID,0,INVALID,111.252,VALID,0,VALID,24.5193,VALID,26,VALID,0.247656,
2010-07-28, 03:14:04,VALID,1003.37,VALID,0,INVALID,111.252,VALID,0,VALID,24.5212,VALID,58,VALID,0.448828,
2010-07-28, 03:15:04,VALID,1003.42,VALID,0,INVALID,111.252,VALID,0,VALID,24.5017,VALID,82,VALID,0.964063,
2010-07-28, 03:16:04,VALID,1003.39,VALID,0,INVALID,111.244,VALID,0,VALID,24.4414,VALID,86,VALID,0.853125,
2010-07-28, 03:17:04,VALID,1003.42,VALID,0,INVALID,111.237,VALID,0,VALID,24.4646,VALID,75,VALID,0.837109,
2010-07-28, 03:18:04,VALID,1003.41,VALID,0,INVALID,111.252,VALID,0,VALID,24.422,VALID,64,VALID,0.705859,
2010-07-28, 03:19:04,VALID,1003.43,VALID,0,INVALID,111.214,VALID,0,VALID,24.4238,VALID,76,VALID,0.825391,
2010-07-28, 03:20:04,VALID,1003.45,VALID,0,INVALID,111.237,VALID,0,VALID,24.4025,VALID,72,VALID,0.572656,
2010-07-28, 03:21:04,VALID,1003.44,VALID,0,INVALID,111.237,VALID,0,VALID,24.383,VALID,93,VALID,0.469922,
2010-07-28, 03:22:04,VALID,1003.48,VALID,0,INVALID,111.214,VALID,0,VALID,24.4043,VALID,102,VALID,0.416016,
2010-07-28, 03:23:04,VALID,1003.48,VALID,0,INVALID,111.199,VALID,0,VALID,24.4043,VALID,117,VALID,0.782422,
2010-07-28, 03:24:04,VALID,1003.48,VALID,0,INVALID,111.214,VALID,0,VALID,24.4433,VALID,124,VALID,0.894141,
2010-07-28, 03:25:04,VALID,1003.48,VALID,0,INVALID,111.199,VALID,0,VALID,24.422,VALID,109,VALID,0.611328,
2010-07-28, 03:26:04,VALID,1003.52,VALID,0,INVALID,111.199,VALID,0,VALID,24.4238,VALID,109,VALID,0.585156,
2010-07-28, 03:27:04,VALID,1003.49,VALID,0,INVALID,111.183,VALID,0,VALID,24.4043,VALID,107,VALID,0.605859,
2010-07-28, 03:28:04,VALID,1003.51,VALID,0,INVALID,111.176,VALID,0,VALID,24.383,VALID,107,VALID,0.560938,
2010-07-28, 03:29:04,VALID,1003.51,VALID,0,INVALID,111.199,VALID,0,VALID,24.4043,VALID,106,VALID,0.399609,
2010-07-28, 03:30:04,VALID,1003.52,VALID,0,INVALID,111.214,VALID,0,VALID,24.3636,VALID,75,VALID,0.476563,
2010-07-28, 03:31:04,VALID,1003.56,VALID,0,INVALID,111.206,VALID,0,VALID,24.3441,VALID,59,VALID,0.54375,
2010-07-28, 03:32:04,VALID,1003.59,VALID,0,INVALID,111.199,VALID,0,VALID,24.3441,VALID,52,VALID,0.459766,
2010-07-28, 03:33:04,VALID,1003.55,VALID,0,INVALID,111.176,VALID,0.100563,VALID,24.3246,VALID,133,VALID,0.946094,
2010-07-28, 03:34:04,VALID,1003.57,VALID,0,INVALID,111.168,VALID,0.100563,VALID,24.3246,VALID,87,VALID,0.615625,
2010-07-28, 03:35:04,VALID,1003.52,VALID,0,INVALID,111.153,VALID,0,VALID,24.3052,VALID,79,VALID,0.427344,
2010-07-28, 03:36:04,VALID,1003.52,VALID,0,INVALID,111.145,VALID,0,VALID,24.2857,VALID,79,VALID,0.277734,
2010-07-28, 03:37:04,VALID,1003.5,VALID,0,INVALID,111.122,VALID,0,VALID,24.2857,VALID,79,VALID,0.18125,
2010-07-28, 03:38:04,VALID,1003.49,VALID,0,INVALID,111.122,VALID,0,VALID,24.2662,VALID,79,VALID,0.00195313,
2010-07-28, 03:39:04,VALID,1003.5,VALID,0,INVALID,111.092,VALID,0,VALID,24.2875,VALID,79,VALID,0.214453,
2010-07-28, 03:40:04,VALID,1003.47,VALID,0,INVALID,111.076,VALID,0,VALID,24.2468,VALID,79,VALID,0.282031,
2010-07-28, 03:41:04,VALID,1003.51,VALID,0,INVALID,111.054,VALID,0,VALID,24.2486,VALID,79,VALID,0,
2010-07-28, 03:42:04,VALID,1003.48,VALID,0,INVALID,111.023,VALID,0,VALID,24.2468,VALID,184,VALID,0.763672,
2010-07-28, 03:43:04,VALID,1003.49,VALID,0,INVALID,110.985,VALID,0,VALID,24.2273,VALID,219,VALID,1.21172,